TimeCDT,TemperatureF,Dew PointF,Humidity,Sea Level PressureIn,VisibilityMPH,Wind Direction,Wind SpeedMPH,Gust SpeedMPH,PrecipitationIn,Events,Conditions,WindDirDegrees,DateUTC
12:53 AM,45.0,41.0,86,29.95,10.0,NNW,4.6,-,N/A,,Clear,340,2012-10-22 05:53:00
1:53 AM,48.0,43.0,83,29.96,10.0,North,6.9,-,N/A,,Clear,360,2012-10-22 06:53:00
2:53 AM,46.9,42.1,83,29.96,10.0,North,6.9,-,N/A,,Clear,10,2012-10-22 07:53:00
3:53 AM,46.0,41.0,83,29.96,10.0,North,6.9,-,N/A,,Clear,10,2012-10-22 08:53:00
4:53 AM,48.0,42.1,80,29.96,10.0,NNE,6.9,-,N/A,,Clear,30,2012-10-22 09:53:00
5:53 AM,48.9,42.1,77,29.97,10.0,NNE,9.2,19.6,N/A,,Clear,20,2012-10-22 10:53:00
6:53 AM,48.9,43.0,80,29.99,10.0,NNE,5.8,-,N/A,,Clear,30,2012-10-22 11:53:00
7:53 AM,48.0,43.0,83,30.01,10.0,NNE,8.1,-,N/A,,Clear,30,2012-10-22 12:53:00
8:53 AM,50.0,44.6,82,29.99,10.0,NNE,9.2,-,N/A,,Mostly Cloudy,30,2012-10-22 13:53:00
9:25 AM,50.0,44.6,82,29.99,10.0,NE,12.7,19.6,N/A,,Overcast,40,2012-10-22 14:25:00
9:53 AM,51.1,45.0,80,30.03,10.0,NE,12.7,23.0,N/A,,Overcast,40,2012-10-22 14:53:00
10:53 AM,54.0,45.0,72,30.03,10.0,NE,11.5,25.3,N/A,,Overcast,40,2012-10-22 15:53:00
11:00 AM,53.6,44.6,72,30.00,10.0,NE,13.8,24.2,N/A,,Overcast,40,2012-10-22 16:00:00
11:53 AM,54.0,45.0,72,30.03,10.0,NE,13.8,21.9,N/A,,Overcast,50,2012-10-22 16:53:00
12:53 PM,55.0,44.1,67,30.01,10.0,ENE,9.2,20.7,N/A,,Overcast,60,2012-10-22 17:53:00
1:53 PM,55.0,44.1,67,29.99,10.0,NE,13.8,19.6,N/A,,Overcast,50,2012-10-22 18:53:00
2:53 PM,55.0,44.1,67,29.98,10.0,ENE,8.1,17.3,N/A,,Overcast,60,2012-10-22 19:53:00
3:53 PM,55.9,44.1,64,29.96,10.0,NE,11.5,18.4,N/A,,Overcast,50,2012-10-22 20:53:00
4:53 PM,55.0,44.1,67,29.96,10.0,NE,10.4,17.3,N/A,,Overcast,50,2012-10-22 21:53:00
5:53 PM,55.0,44.1,67,29.96,10.0,NE,10.4,17.3,N/A,,Overcast,50,2012-10-22 22:53:00
6:53 PM,55.0,45.0,69,29.97,10.0,NE,5.8,-,N/A,,Overcast,50,2012-10-22 23:53:00
7:51 PM,55.4,44.6,67,29.93,10.0,NE,5.8,-,0.00,,Overcast,40,2012-10-23 00:51:00
7:53 PM,54.0,44.1,69,29.97,10.0,NE,8.1,-,0.00,,Overcast,40,2012-10-23 00:53:00
8:53 PM,53.1,44.1,71,29.96,10.0,ENE,8.1,-,N/A,,Overcast,60,2012-10-23 01:53:00
9:53 PM,53.1,44.1,71,29.95,10.0,East,8.1,-,N/A,,Overcast,80,2012-10-23 02:53:00
10:53 PM,52.0,43.0,71,29.93,10.0,East,10.4,17.3,N/A,,Overcast,80,2012-10-23 03:53:00
11:53 PM,51.1,43.0,74,29.92,10.0,ENE,9.2,-,N/A,,Overcast,70,2012-10-23 04:53:00